Time,TemperatureF,DewpointF,PressureIn,WindDirection,WindDirectionDegrees,WindSpeedMPH,WindSpeedGustMPH,Humidity,HourlyPrecipIn,Conditions,Clouds,dailyrainin,SoftwareType,DateUTC
2013-08-12 00:02:00,77.5,75.0,30.13,South,173,2.0,3.0,92,0.00,,,0.00,meteohub,2013-08-12 04:02:00,
2013-08-12 00:07:00,77.5,74.7,30.13,South,173,1.0,3.0,91,0.00,,,0.00,meteohub,2013-08-12 04:07:00,
2013-08-12 00:12:00,77.5,74.7,30.12,South,173,0.0,2.0,91,0.00,,,0.00,meteohub,2013-08-12 04:12:00,
2013-08-12 00:17:00,77.4,74.5,30.13,South,173,3.0,3.0,91,0.00,,,0.00,meteohub,2013-08-12 04:17:00,
2013-08-12 00:22:00,77.4,74.8,30.12,South,173,0.0,5.0,92,0.00,,,0.00,meteohub,2013-08-12 04:22:00,
2013-08-12 00:27:00,77.4,74.8,30.13,South,173,0.0,5.0,92,0.00,,,0.00,meteohub,2013-08-12 04:27:00,
2013-08-12 00:32:00,77.4,74.8,30.13,South,173,1.0,5.0,92,0.00,,,0.00,meteohub,2013-08-12 04:32:00,
2013-08-12 00:37:00,77.4,74.5,30.13,South,173,1.0,5.0,91,0.00,,,0.00,meteohub,2013-08-12 04:37:00,
2013-08-12 00:42:00,77.4,74.8,30.12,South,173,0.0,3.0,92,0.00,,,0.00,meteohub,2013-08-12 04:42:00,
2013-08-12 00:47:00,77.4,74.8,30.12,South,173,0.0,3.0,92,0.00,,,0.00,meteohub,2013-08-12 04:47:00,
2013-08-12 00:52:00,77.4,74.8,30.12,South,173,0.0,5.0,92,0.00,,,0.00,meteohub,2013-08-12 04:52:00,
2013-08-12 00:57:00,77.4,74.5,30.12,South,173,2.0,7.0,91,0.00,,,0.00,meteohub,2013-08-12 04:57:00,
2013-08-12 01:02:00,77.4,74.5,30.12,South,173,1.0,7.0,91,0.00,,,0.00,meteohub,2013-08-12 05:02:00,
2013-08-12 01:07:00,77.4,74.5,30.12,South,173,0.0,6.0,91,0.00,,,0.00,meteohub,2013-08-12 05:07:00,
2013-08-12 01:12:00,77.4,74.8,30.12,South,173,0.0,6.0,92,0.00,,,0.00,meteohub,2013-08-12 05:12:00,
2013-08-12 01:17:00,77.4,74.8,30.12,South,173,0.0,6.0,92,0.00,,,0.00,meteohub,2013-08-12 05:17:00,
2013-08-12 01:22:00,77.2,74.7,30.12,South,173,0.0,6.0,92,0.00,,,0.00,meteohub,2013-08-12 05:22:00,
2013-08-12 01:27:00,77.2,74.7,30.12,South,173,0.0,6.0,92,0.00,,,0.00,meteohub,2013-08-12 05:27:00,
2013-08-12 01:32:00,77.2,74.7,30.12,South,173,0.0,6.0,92,0.00,,,0.00,meteohub,2013-08-12 05:32:00,
2013-08-12 01:37:00,77.2,74.7,30.12,South,173,0.0,3.0,92,0.00,,,0.00,meteohub,2013-08-12 05:37:00,
2013-08-12 01:42:00,77.0,74.5,30.12,South,173,0.0,3.0,92,0.00,,,0.00,meteohub,2013-08-12 05:42:00,
2013-08-12 01:47:00,77.0,74.5,30.12,South,173,0.0,5.0,92,0.00,,,0.00,meteohub,2013-08-12 05:47:00,
2013-08-12 01:52:00,77.0,74.5,30.12,South,173,0.0,5.0,92,0.00,,,0.00,meteohub,2013-08-12 05:52:00,
2013-08-12 01:57:00,76.8,74.3,30.12,South,173,0.0,5.0,92,0.00,,,0.00,meteohub,2013-08-12 05:57:00,
2013-08-12 02:02:00,76.8,74.3,30.12,South,173,0.0,3.0,92,0.00,,,0.00,meteohub,2013-08-12 06:02:00,
2013-08-12 02:07:00,76.8,74.7,30.11,South,173,0.0,3.0,93,0.00,,,0.00,meteohub,2013-08-12 06:07:00,
2013-08-12 02:12:00,76.8,74.7,30.11,South,173,1.0,1.0,93,0.00,,,0.00,meteohub,2013-08-12 06:12:00,
2013-08-12 02:17:00,76.8,74.7,30.11,South,173,0.0,3.0,93,0.00,,,0.00,meteohub,2013-08-12 06:17:00,
2013-08-12 02:22:00,76.6,74.5,30.11,South,173,2.0,3.0,93,0.00,,,0.00,meteohub,2013-08-12 06:22:00,
2013-08-12 02:27:00,76.6,74.5,30.11,South,173,1.0,3.0,93,0.00,,,0.00,meteohub,2013-08-12 06:27:00,
2013-08-12 02:32:00,76.6,74.5,30.11,South,173,0.0,3.0,93,0.00,,,0.00,meteohub,2013-08-12 06:32:00,
2013-08-12 02:37:00,76.5,74.3,30.10,South,173,0.0,3.0,93,0.00,,,0.00,meteohub,2013-08-12 06:37:00,
2013-08-12 02:42:00,76.5,74.3,30.11,South,173,0.0,2.0,93,0.00,,,0.00,meteohub,2013-08-12 06:42:00,
2013-08-12 02:47:00,76.5,74.3,30.10,South,173,1.0,3.0,93,0.00,,,0.00,meteohub,2013-08-12 06:47:00,
2013-08-12 02:52:00,76.5,74.7,30.10,South,173,0.0,3.0,94,0.00,,,0.00,meteohub,2013-08-12 06:52:00,
2013-08-12 02:57:00,76.5,74.3,30.10,South,173,2.0,3.0,93,0.00,,,0.00,meteohub,2013-08-12 06:57:00,
2013-08-12 03:02:00,76.5,74.3,30.10,South,173,0.0,3.0,93,0.00,,,0.00,meteohub,2013-08-12 07:02:00,
2013-08-12 03:07:00,76.5,74.7,30.10,South,173,0.0,3.0,94,0.00,,,0.00,meteohub,2013-08-12 07:07:00,
2013-08-12 03:12:00,76.5,74.7,30.10,South,173,0.0,2.0,94,0.00,,,0.00,meteohub,2013-08-12 07:12:00,
2013-08-12 03:17:00,76.3,74.1,30.10,South,173,0.0,2.0,93,0.00,,,0.00,meteohub,2013-08-12 07:17:00,
2013-08-12 03:22:00,76.3,74.5,30.10,South,173,1.0,5.0,94,0.00,,,0.00,meteohub,2013-08-12 07:22:00,
2013-08-12 03:27:00,76.3,74.1,30.09,South,173,0.0,5.0,93,0.00,,,0.00,meteohub,2013-08-12 07:27:00,
2013-08-12 03:32:00,76.3,74.5,30.09,South,173,0.0,5.0,94,0.00,,,0.00,meteohub,2013-08-12 07:32:00,
2013-08-12 03:37:00,76.3,74.1,30.09,South,173,0.0,5.0,93,0.00,,,0.00,meteohub,2013-08-12 07:37:00,
2013-08-12 03:42:00,76.3,74.1,30.09,South,173,0.0,3.0,93,0.00,,,0.00,meteohub,2013-08-12 07:42:00,
2013-08-12 03:47:00,76.3,74.5,30.09,South,173,0.0,1.0,94,0.00,,,0.00,meteohub,2013-08-12 07:47:00,
2013-08-12 03:52:00,76.3,74.5,30.09,South,173,0.0,3.0,94,0.00,,,0.00,meteohub,2013-08-12 07:52:00,
2013-08-12 03:57:00,76.3,74.5,30.09,South,173,0.0,3.0,94,0.00,,,0.00,meteohub,2013-08-12 07:57:00,
2013-08-12 04:02:00,76.1,74.3,30.09,South,173,0.0,5.0,94,0.00,,,0.00,meteohub,2013-08-12 08:02:00,
2013-08-12 04:07:00,75.9,74.1,30.09,South,173,0.0,5.0,94,0.00,,,0.00,meteohub,2013-08-12 08:07:00,
2013-08-12 04:12:00,75.9,74.1,30.09,South,173,0.0,5.0,94,0.00,,,0.00,meteohub,2013-08-12 08:12:00,
2013-08-12 04:17:00,75.9,74.1,30.09,South,173,0.0,2.0,94,0.00,,,0.00,meteohub,2013-08-12 08:17:00,
2013-08-12 04:22:00,75.9,74.1,30.09,South,173,0.0,3.0,94,0.00,,,0.00,meteohub,2013-08-12 08:22:00,
2013-08-12 04:27:00,75.9,74.1,30.09,South,173,0.0,3.0,94,0.00,,,0.00,meteohub,2013-08-12 08:27:00,
2013-08-12 04:32:00,75.9,74.1,30.09,South,173,0.0,1.0,94,0.00,,,0.00,meteohub,2013-08-12 08:32:00,
2013-08-12 04:37:00,75.9,74.1,30.09,South,173,0.0,1.0,94,0.00,,,0.00,meteohub,2013-08-12 08:37:00,
2013-08-12 04:42:00,75.9,74.1,30.09,South,173,0.0,0.0,94,0.00,,,0.00,meteohub,2013-08-12 08:42:00,
2013-08-12 04:47:00,75.7,73.9,30.09,South,173,0.0,0.0,94,0.00,,,0.00,meteohub,2013-08-12 08:47:00,
2013-08-12 04:52:00,75.7,74.1,30.09,South,173,0.0,0.0,95,0.00,,,0.00,meteohub,2013-08-12 08:52:00,
2013-08-12 04:57:00,75.7,74.1,30.09,South,173,0.0,0.0,95,0.00,,,0.00,meteohub,2013-08-12 08:57:00,
2013-08-12 05:02:00,75.7,74.1,30.09,South,173,0.0,3.0,95,0.00,,,0.00,meteohub,2013-08-12 09:02:00,
2013-08-12 05:07:00,75.7,74.1,30.09,South,173,0.0,3.0,95,0.00,,,0.00,meteohub,2013-08-12 09:07:00,
2013-08-12 05:12:00,75.6,73.9,30.09,South,173,0.0,3.0,95,0.00,,,0.00,meteohub,2013-08-12 09:12:00,
2013-08-12 05:17:00,75.6,73.9,30.09,South,173,0.0,0.0,95,0.00,,,0.00,meteohub,2013-08-12 09:17:00,
2013-08-12 05:22:00,75.6,73.9,30.09,South,173,0.0,0.0,95,0.00,,,0.00,meteohub,2013-08-12 09:22:00,
2013-08-12 05:27:00,75.4,73.8,30.09,South,173,0.0,0.0,95,0.00,,,0.00,meteohub,2013-08-12 09:27:00,
2013-08-12 05:32:00,75.4,73.8,30.09,South,173,0.0,0.0,95,0.00,,,0.00,meteohub,2013-08-12 09:32:00,
2013-08-12 05:37:00,75.4,73.8,30.09,South,173,0.0,0.0,95,0.00,,,0.00,meteohub,2013-08-12 09:37:00,
2013-08-12 05:42:00,75.4,74.1,30.09,South,173,0.0,0.0,96,0.00,,,0.00,meteohub,2013-08-12 09:42:00,
2013-08-12 05:47:00,75.2,73.9,30.09,South,173,0.0,0.0,96,0.00,,,0.00,meteohub,2013-08-12 09:47:00,
2013-08-12 05:52:00,75.2,73.9,30.09,South,173,0.0,0.0,96,0.00,,,0.00,meteohub,2013-08-12 09:52:00,
2013-08-12 05:57:00,75.2,73.9,30.09,South,173,0.0,0.0,96,0.00,,,0.00,meteohub,2013-08-12 09:57:00,
2013-08-12 06:02:00,75.2,73.9,30.09,South,173,0.0,0.0,96,0.00,,,0.00,meteohub,2013-08-12 10:02:00,
2013-08-12 06:07:00,75.0,73.8,30.10,South,173,0.0,0.0,96,0.00,,,0.00,meteohub,2013-08-12 10:07:00,
2013-08-12 06:12:00,75.0,73.8,30.10,South,173,0.0,0.0,96,0.00,,,0.00,meteohub,2013-08-12 10:12:00,
2013-08-12 06:17:00,75.0,73.8,30.10,South,173,0.0,0.0,96,0.00,,,0.00,meteohub,2013-08-12 10:17:00,
2013-08-12 06:22:00,75.0,73.8,30.10,South,173,0.0,0.0,96,0.00,,,0.00,meteohub,2013-08-12 10:22:00,
2013-08-12 06:27:00,75.0,73.8,30.10,South,173,0.0,0.0,96,0.00,,,0.00,meteohub,2013-08-12 10:27:00,
2013-08-12 06:32:00,75.0,74.1,30.10,South,173,0.0,0.0,97,0.00,,,0.00,meteohub,2013-08-12 10:32:00,
2013-08-12 06:37:00,75.0,74.1,30.10,South,173,0.0,0.0,97,0.00,,,0.00,meteohub,2013-08-12 10:37:00,
2013-08-12 06:42:00,75.0,73.8,30.10,South,173,0.0,0.0,96,0.00,,,0.00,meteohub,2013-08-12 10:42:00,
2013-08-12 06:47:00,75.0,74.1,30.10,South,173,0.0,0.0,97,0.00,,,0.00,meteohub,2013-08-12 10:47:00,
2013-08-12 06:52:00,75.0,74.1,30.11,South,173,0.0,0.0,97,0.00,,,0.00,meteohub,2013-08-12 10:52:00,
2013-08-12 06:57:00,75.0,74.1,30.11,South,173,0.0,0.0,97,0.00,,,0.00,meteohub,2013-08-12 10:57:00,
2013-08-12 07:02:00,75.0,74.1,30.11,South,173,0.0,0.0,97,0.00,,,0.00,meteohub,2013-08-12 11:02:00,
2013-08-12 07:07:00,75.0,74.1,30.11,South,173,0.0,3.0,97,0.00,,,0.00,meteohub,2013-08-12 11:07:00,
2013-08-12 07:12:00,75.2,74.3,30.11,South,173,0.0,3.0,97,0.00,,,0.00,meteohub,2013-08-12 11:12:00,
2013-08-12 07:17:00,75.4,74.5,30.11,South,173,0.0,3.0,97,0.00,,,0.00,meteohub,2013-08-12 11:17:00,
2013-08-12 07:22:00,75.4,74.5,30.11,South,173,0.0,2.0,97,0.00,,,0.00,meteohub,2013-08-12 11:22:00,
2013-08-12 07:27:00,75.6,74.7,30.11,South,173,0.0,2.0,97,0.00,,,0.00,meteohub,2013-08-12 11:27:00,
2013-08-12 07:32:00,75.6,74.7,30.11,South,173,0.0,0.0,97,0.00,,,0.00,meteohub,2013-08-12 11:32:00,
2013-08-12 07:37:00,75.7,74.8,30.11,South,173,0.0,0.0,97,0.00,,,0.00,meteohub,2013-08-12 11:37:00,
2013-08-12 07:42:00,75.7,74.8,30.11,South,173,0.0,0.0,97,0.00,,,0.00,meteohub,2013-08-12 11:42:00,
2013-08-12 07:47:00,75.9,75.0,30.11,South,173,0.0,0.0,97,0.00,,,0.00,meteohub,2013-08-12 11:47:00,
2013-08-12 07:52:00,76.3,75.0,30.11,South,173,0.0,0.0,96,0.00,,,0.00,meteohub,2013-08-12 11:52:00,
2013-08-12 07:57:00,76.5,75.2,30.11,South,173,0.0,3.0,96,0.00,,,0.00,meteohub,2013-08-12 11:57:00,
2013-08-12 08:02:00,76.6,75.4,30.11,South,173,0.0,5.0,96,0.00,,,0.00,meteohub,2013-08-12 12:02:00,
2013-08-12 08:07:00,76.8,75.2,30.11,South,173,0.0,5.0,95,0.00,,,0.00,meteohub,2013-08-12 12:07:00,
2013-08-12 08:12:00,77.2,75.4,30.11,South,173,0.0,5.0,94,0.00,,,0.00,meteohub,2013-08-12 12:12:00,
2013-08-12 08:17:00,77.5,75.7,30.11,South,173,1.0,5.0,94,0.00,,,0.00,meteohub,2013-08-12 12:17:00,
2013-08-12 08:22:00,78.1,75.9,30.11,South,173,1.0,5.0,93,0.00,,,0.00,meteohub,2013-08-12 12:22:00,
2013-08-12 08:27:00,78.4,75.9,30.11,South,173,2.0,5.0,92,0.00,,,0.00,meteohub,2013-08-12 12:27:00,
2013-08-12 08:32:00,79.0,76.1,30.11,South,173,1.0,7.0,91,0.00,,,0.00,meteohub,2013-08-12 12:32:00,
2013-08-12 08:37:00,79.3,76.1,30.11,South,173,3.0,7.0,90,0.00,,,0.00,meteohub,2013-08-12 12:37:00,
2013-08-12 08:42:00,79.9,76.3,30.11,South,173,2.0,6.0,89,0.00,,,0.00,meteohub,2013-08-12 12:42:00,
2013-08-12 08:47:00,80.4,76.5,30.11,SSW,194,3.0,6.0,88,0.00,,,0.00,meteohub,2013-08-12 12:47:00,
2013-08-12 08:52:00,80.8,76.5,30.11,SW,232,2.0,6.0,87,0.00,,,0.00,meteohub,2013-08-12 12:52:00,
2013-08-12 08:57:00,81.3,76.6,30.11,SW,234,0.0,6.0,86,0.00,,,0.00,meteohub,2013-08-12 12:57:00,
2013-08-12 09:02:00,81.9,76.8,30.12,NNW,336,2.0,6.0,85,0.00,,,0.00,meteohub,2013-08-12 13:02:00,
2013-08-12 09:07:00,82.2,76.8,30.12,WNW,290,0.0,6.0,84,0.00,,,0.00,meteohub,2013-08-12 13:07:00,
2013-08-12 09:12:00,82.4,76.6,30.12,NW,310,5.0,7.0,83,0.00,,,0.00,meteohub,2013-08-12 13:12:00,
2013-08-12 09:17:00,82.6,76.8,30.11,West,263,1.0,7.0,83,0.00,,,0.00,meteohub,2013-08-12 13:17:00,
2013-08-12 09:22:00,82.9,76.8,30.11,WNW,300,0.0,7.0,82,0.00,,,0.00,meteohub,2013-08-12 13:22:00,
2013-08-12 09:32:00,84.4,77.5,30.11,NW,310,2.0,6.0,80,0.00,,,0.00,meteohub,2013-08-12 13:32:00,
2013-08-12 09:37:00,84.7,77.5,30.11,NW,324,1.0,6.0,79,0.00,,,0.00,meteohub,2013-08-12 13:37:00,
2013-08-12 09:42:00,85.3,77.7,30.11,NW,321,6.0,8.0,78,0.00,,,0.00,meteohub,2013-08-12 13:42:00,
2013-08-12 09:47:00,85.5,77.4,30.11,NNW,335,5.0,8.0,77,0.00,,,0.00,meteohub,2013-08-12 13:47:00,
2013-08-12 09:52:00,85.6,77.5,30.11,NNE,28,4.0,11.0,77,0.00,,,0.00,meteohub,2013-08-12 13:52:00,
2013-08-12 09:57:00,85.6,76.8,30.11,NNW,344,4.0,11.0,75,0.00,,,0.00,meteohub,2013-08-12 13:57:00,
2013-08-12 10:02:00,85.8,77.4,30.10,NNW,328,4.0,11.0,76,0.00,,,0.00,meteohub,2013-08-12 14:02:00,
2013-08-12 10:07:00,86.5,77.7,30.11,NW,325,8.0,9.0,75,0.00,,,0.00,meteohub,2013-08-12 14:07:00,
2013-08-12 10:12:00,87.1,77.7,30.10,NW,317,6.0,9.0,74,0.00,,,0.00,meteohub,2013-08-12 14:12:00,
2013-08-12 10:17:00,87.4,77.7,30.10,NNW,338,4.0,9.0,73,0.00,,,0.00,meteohub,2013-08-12 14:17:00,
2013-08-12 10:22:00,87.6,77.9,30.10,NW,324,4.0,9.0,73,0.00,,,0.00,meteohub,2013-08-12 14:22:00,
2013-08-12 10:27:00,88.0,78.3,30.10,NW,321,5.0,9.0,73,0.00,,,0.00,meteohub,2013-08-12 14:27:00,
2013-08-12 10:32:00,88.5,78.3,30.10,NNE,15,3.0,9.0,72,0.00,,,0.00,meteohub,2013-08-12 14:32:00,
2013-08-12 10:37:00,89.1,79.3,30.10,NNE,21,3.0,9.0,73,0.00,,,0.00,meteohub,2013-08-12 14:37:00,
2013-08-12 10:42:00,89.6,78.4,30.10,NNE,25,0.0,9.0,70,0.00,,,0.00,meteohub,2013-08-12 14:42:00,
2013-08-12 10:47:00,90.1,78.6,30.10,NNE,25,0.0,8.0,69,0.00,,,0.00,meteohub,2013-08-12 14:47:00,
2013-08-12 10:52:00,90.7,78.6,30.10,NNW,336,5.0,8.0,68,0.00,,,0.00,meteohub,2013-08-12 14:52:00,
2013-08-12 10:57:00,90.9,78.8,30.09,NW,315,2.0,9.0,68,0.00,,,0.00,meteohub,2013-08-12 14:57:00,
2013-08-12 11:02:00,90.9,77.9,30.09,NNW,341,0.0,9.0,66,0.00,,,0.00,meteohub,2013-08-12 15:02:00,
2013-08-12 11:07:00,91.2,77.7,30.09,NNW,341,1.0,9.0,65,0.00,,,0.00,meteohub,2013-08-12 15:07:00,
2013-08-12 11:12:00,91.8,78.3,30.09,NNE,19,2.0,6.0,65,0.00,,,0.00,meteohub,2013-08-12 15:12:00,
2013-08-12 11:17:00,92.1,77.2,30.09,NE,34,6.0,6.0,62,0.00,,,0.00,meteohub,2013-08-12 15:17:00,
2013-08-12 11:22:00,92.1,77.2,30.09,NNW,339,0.0,8.0,62,0.00,,,0.00,meteohub,2013-08-12 15:22:00,
2013-08-12 11:27:00,92.1,77.2,30.09,NNE,28,6.0,9.0,62,0.00,,,0.00,meteohub,2013-08-12 15:27:00,
2013-08-12 11:32:00,92.3,78.3,30.09,NNE,28,2.0,9.0,64,0.00,,,0.00,meteohub,2013-08-12 15:32:00,
2013-08-12 11:37:00,92.5,77.5,30.09,NNE,29,6.0,9.0,62,0.00,,,0.00,meteohub,2013-08-12 15:37:00,
2013-08-12 11:42:00,91.8,76.5,30.09,North,349,3.0,8.0,61,0.00,,,0.00,meteohub,2013-08-12 15:42:00,
2013-08-12 11:47:00,91.2,76.3,30.09,North,349,3.0,8.0,62,0.00,,,0.00,meteohub,2013-08-12 15:47:00,
2013-08-12 11:52:00,91.8,78.8,30.09,SE,144,0.0,8.0,66,0.00,,,0.00,meteohub,2013-08-12 15:52:00,
2013-08-12 11:57:00,92.8,78.8,30.09,East,91,7.0,7.0,64,0.00,,,0.00,meteohub,2013-08-12 15:57:00,
2013-08-12 12:02:00,93.6,78.1,30.09,ENE,71,5.0,7.0,61,0.00,,,0.00,meteohub,2013-08-12 16:02:00,
2013-08-12 12:07:00,94.5,77.9,30.08,NNE,13,0.0,7.0,59,0.00,,,0.00,meteohub,2013-08-12 16:07:00,
2013-08-12 12:12:00,94.8,77.7,30.08,NNE,13,1.0,8.0,58,0.00,,,0.00,meteohub,2013-08-12 16:12:00,
2013-08-12 12:17:00,94.6,76.5,30.08,North,5,3.0,8.0,56,0.00,,,0.00,meteohub,2013-08-12 16:17:00,
2013-08-12 12:22:00,93.7,76.3,30.08,North,0,1.0,10.0,57,0.00,,,0.00,meteohub,2013-08-12 16:22:00,
2013-08-12 12:27:00,93.0,76.1,30.08,NW,304,2.0,10.0,58,0.00,,,0.00,meteohub,2013-08-12 16:27:00,
2013-08-12 12:32:00,92.7,76.8,30.07,NW,305,3.0,10.0,60,0.00,,,0.00,meteohub,2013-08-12 16:32:00,
2013-08-12 12:37:00,92.1,76.3,30.07,NW,306,2.0,7.0,60,0.00,,,0.00,meteohub,2013-08-12 16:37:00,
2013-08-12 12:42:00,91.9,76.1,30.07,NW,306,2.0,7.0,60,0.00,,,0.00,meteohub,2013-08-12 16:42:00,
2013-08-12 12:47:00,92.7,77.2,30.07,South,184,4.0,5.0,61,0.00,,,0.00,meteohub,2013-08-12 16:47:00,
2013-08-12 12:52:00,93.0,79.0,30.07,South,180,2.0,8.0,64,0.00,,,0.00,meteohub,2013-08-12 16:52:00,
2013-08-12 12:57:00,93.0,79.0,30.06,South,180,0.0,8.0,64,0.00,,,0.00,meteohub,2013-08-12 16:57:00,
2013-08-12 13:02:00,92.8,77.4,30.07,WNW,285,0.0,8.0,61,0.00,,,0.00,meteohub,2013-08-12 17:02:00,
2013-08-12 13:07:00,92.7,77.7,30.06,NNE,14,2.0,5.0,62,0.00,,,0.00,meteohub,2013-08-12 17:07:00,
2013-08-12 13:12:00,92.1,77.2,30.06,NNE,31,3.0,4.0,62,0.00,,,0.00,meteohub,2013-08-12 17:12:00,
2013-08-12 13:17:00,91.8,78.3,30.07,ESE,102,0.0,5.0,65,0.00,,,0.00,meteohub,2013-08-12 17:17:00,
2013-08-12 13:22:00,91.0,78.1,30.06,ESE,113,3.0,7.0,66,0.00,,,0.00,meteohub,2013-08-12 17:22:00,
2013-08-12 13:27:00,90.5,78.1,30.06,SE,136,3.0,7.0,67,0.00,,,0.00,meteohub,2013-08-12 17:27:00,
2013-08-12 13:32:00,90.9,80.1,30.06,ESE,114,1.0,10.0,71,0.00,,,0.00,meteohub,2013-08-12 17:32:00,
2013-08-12 13:37:00,91.8,79.2,30.06,ESE,104,6.0,10.0,67,0.00,,,0.00,meteohub,2013-08-12 17:37:00,
2013-08-12 13:42:00,92.3,79.7,30.06,East,92,2.0,11.0,67,0.00,,,0.00,meteohub,2013-08-12 17:42:00,
2013-08-12 13:47:00,92.7,79.2,30.06,SE,138,3.0,11.0,65,0.00,,,0.00,meteohub,2013-08-12 17:47:00,
2013-08-12 13:52:00,93.0,78.1,30.06,ENE,59,1.0,11.0,62,0.00,,,0.00,meteohub,2013-08-12 17:52:00,
2013-08-12 13:57:00,93.7,78.8,30.06,NE,54,7.0,9.0,62,0.00,,,0.00,meteohub,2013-08-12 17:57:00,
2013-08-12 14:02:00,94.3,79.2,30.06,East,100,8.0,9.0,62,0.00,,,0.00,meteohub,2013-08-12 18:02:00,
2013-08-12 14:07:00,94.5,78.4,30.06,SSE,148,1.0,9.0,60,0.00,,,0.00,meteohub,2013-08-12 18:07:00,
2013-08-12 14:12:00,94.1,78.1,30.06,SE,142,4.0,11.0,60,0.00,,,0.00,meteohub,2013-08-12 18:12:00,
2013-08-12 14:17:00,93.7,77.2,30.06,ESE,103,3.0,12.0,59,0.00,,,0.00,meteohub,2013-08-12 18:17:00,
2013-08-12 14:22:00,93.7,78.3,30.06,East,101,2.0,12.0,61,0.00,,,0.00,meteohub,2013-08-12 18:22:00,
2013-08-12 14:27:00,94.1,76.5,30.05,ENE,76,3.0,12.0,57,0.00,,,0.00,meteohub,2013-08-12 18:27:00,
2013-08-12 14:32:00,94.3,77.2,30.06,SSE,149,1.0,10.0,58,0.00,,,0.00,meteohub,2013-08-12 18:32:00,
2013-08-12 14:37:00,94.3,77.2,30.05,ENE,74,3.0,10.0,58,0.00,,,0.00,meteohub,2013-08-12 18:37:00,
2013-08-12 14:42:00,94.3,77.7,30.05,SSE,149,5.0,10.0,59,0.00,,,0.00,meteohub,2013-08-12 18:42:00,
2013-08-12 14:47:00,93.9,76.8,30.05,East,96,0.0,11.0,58,0.00,,,0.00,meteohub,2013-08-12 18:47:00,
2013-08-12 14:57:00,94.3,77.2,30.04,ESE,103,3.0,11.0,58,0.00,,,0.00,meteohub,2013-08-12 18:57:00,
2013-08-12 15:02:00,93.9,77.9,30.04,ESE,106,3.0,8.0,60,0.00,,,0.00,meteohub,2013-08-12 19:02:00,
2013-08-12 15:12:00,93.7,78.8,30.04,SE,141,0.0,10.0,62,0.00,,,0.00,meteohub,2013-08-12 19:12:00,
2013-08-12 15:17:00,93.7,77.7,30.04,SE,132,4.0,10.0,60,0.00,,,0.00,meteohub,2013-08-12 19:17:00,
2013-08-12 15:22:00,93.4,77.4,30.04,SE,146,2.0,10.0,60,0.00,,,0.00,meteohub,2013-08-12 19:22:00,
2013-08-12 15:27:00,93.2,78.3,30.04,East,88,2.0,12.0,62,0.00,,,0.00,meteohub,2013-08-12 19:27:00,
2013-08-12 15:32:00,93.4,76.5,30.04,East,93,0.0,12.0,58,0.00,,,0.00,meteohub,2013-08-12 19:32:00,
2013-08-12 15:37:00,93.4,78.8,30.04,East,95,1.0,12.0,63,0.00,,,0.00,meteohub,2013-08-12 19:37:00,
2013-08-12 15:42:00,93.0,77.0,30.04,SE,139,4.0,9.0,60,0.00,,,0.00,meteohub,2013-08-12 19:42:00,
2013-08-12 15:47:00,92.7,78.3,30.03,SE,134,3.0,9.0,63,0.00,,,0.00,meteohub,2013-08-12 19:47:00,
2013-08-12 15:52:00,92.5,78.1,30.03,East,94,2.0,11.0,63,0.00,,,0.00,meteohub,2013-08-12 19:52:00,
2013-08-12 15:57:00,92.5,77.5,30.03,SSE,157,14.0,14.0,62,0.00,,,0.00,meteohub,2013-08-12 19:57:00,
2013-08-12 16:02:00,91.9,77.5,30.03,SE,145,5.0,14.0,63,0.00,,,0.00,meteohub,2013-08-12 20:02:00,
2013-08-12 16:07:00,91.8,77.4,30.03,SSE,160,4.0,14.0,63,0.00,,,0.00,meteohub,2013-08-12 20:07:00,
2013-08-12 16:12:00,91.2,77.4,30.03,South,169,6.0,14.0,64,0.00,,,0.00,meteohub,2013-08-12 20:12:00,
2013-08-12 16:17:00,91.0,77.5,30.03,SE,142,6.0,9.0,65,0.00,,,0.00,meteohub,2013-08-12 20:17:00,
2013-08-12 16:22:00,90.5,76.6,30.03,ESE,121,3.0,9.0,64,0.00,,,0.00,meteohub,2013-08-12 20:22:00,
2013-08-12 16:27:00,90.3,77.4,30.02,SE,140,0.0,8.0,66,0.00,,,0.00,meteohub,2013-08-12 20:27:00,
2013-08-12 16:32:00,90.0,76.1,30.02,SE,128,7.0,8.0,64,0.00,,,0.00,meteohub,2013-08-12 20:32:00,
2013-08-12 16:37:00,89.2,75.9,30.02,East,99,2.0,8.0,65,0.00,,,0.00,meteohub,2013-08-12 20:37:00,
2013-08-12 16:42:00,88.9,77.4,30.02,ESE,103,1.0,7.0,69,0.00,,,0.00,meteohub,2013-08-12 20:42:00,
2013-08-12 16:47:00,89.1,76.6,30.02,East,96,1.0,7.0,67,0.00,,,0.00,meteohub,2013-08-12 20:47:00,
2013-08-12 16:52:00,89.2,76.8,30.02,ESE,112,2.0,7.0,67,0.00,,,0.00,meteohub,2013-08-12 20:52:00,
2013-08-12 16:57:00,89.8,76.5,30.02,East,83,4.0,7.0,65,0.00,,,0.00,meteohub,2013-08-12 20:57:00,
2013-08-12 17:02:00,90.1,75.9,30.02,SSE,164,10.0,10.0,63,0.00,,,0.00,meteohub,2013-08-12 21:02:00,
2013-08-12 17:07:00,90.3,77.4,30.01,SE,131,4.0,11.0,66,0.00,,,0.00,meteohub,2013-08-12 21:07:00,
2013-08-12 17:12:00,90.3,76.5,30.01,East,100,1.0,12.0,64,0.00,,,0.00,meteohub,2013-08-12 21:12:00,
2013-08-12 17:17:00,90.3,77.0,30.01,East,91,3.0,12.0,65,0.00,,,0.00,meteohub,2013-08-12 21:17:00,
2013-08-12 17:22:00,90.9,77.5,30.01,SSE,163,10.0,10.0,65,0.00,,,0.00,meteohub,2013-08-12 21:22:00,
2013-08-12 17:27:00,90.9,77.0,30.01,SE,142,2.0,11.0,64,0.00,,,0.00,meteohub,2013-08-12 21:27:00,
2013-08-12 17:32:00,90.5,77.2,30.01,SE,126,5.0,12.0,65,0.00,,,0.00,meteohub,2013-08-12 21:32:00,
2013-08-12 17:37:00,90.3,77.4,30.01,ESE,117,3.0,12.0,66,0.00,,,0.00,meteohub,2013-08-12 21:37:00,
2013-08-12 17:42:00,90.7,77.4,30.00,East,92,3.0,12.0,65,0.00,,,0.00,meteohub,2013-08-12 21:42:00,
2013-08-12 17:47:00,90.5,77.5,30.00,SE,142,3.0,9.0,66,0.00,,,0.00,meteohub,2013-08-12 21:47:00,
2013-08-12 17:52:00,90.5,78.1,30.00,SE,130,2.0,9.0,67,0.00,,,0.00,meteohub,2013-08-12 21:52:00,
2013-08-12 17:57:00,90.0,76.1,30.00,SSE,165,5.0,9.0,64,0.00,,,0.00,meteohub,2013-08-12 21:57:00,
2013-08-12 18:02:00,90.0,77.5,30.00,ESE,109,2.0,10.0,67,0.00,,,0.00,meteohub,2013-08-12 22:02:00,
2013-08-12 18:07:00,89.4,75.6,30.00,SSE,154,2.0,10.0,64,0.00,,,0.00,meteohub,2013-08-12 22:07:00,
2013-08-12 18:12:00,89.1,76.3,30.00,SSE,152,1.0,10.0,66,0.00,,,0.00,meteohub,2013-08-12 22:12:00,
2013-08-12 18:17:00,89.1,76.6,30.00,SSE,161,9.0,10.0,67,0.00,,,0.00,meteohub,2013-08-12 22:17:00,
2013-08-12 18:22:00,89.1,76.6,30.01,SE,132,0.0,11.0,67,0.00,,,0.00,meteohub,2013-08-12 22:22:00,
2013-08-12 18:27:00,89.1,76.3,30.01,East,90,1.0,11.0,66,0.00,,,0.00,meteohub,2013-08-12 22:27:00,
2013-08-12 18:32:00,89.1,76.6,30.01,ESE,119,2.0,11.0,67,0.00,,,0.00,meteohub,2013-08-12 22:32:00,
2013-08-12 18:37:00,88.5,76.1,30.01,SE,126,5.0,8.0,67,0.00,,,0.00,meteohub,2013-08-12 22:37:00,
2013-08-12 18:47:00,88.0,76.5,30.01,SSE,155,2.0,8.0,69,0.00,,,0.00,meteohub,2013-08-12 22:47:00,
2013-08-12 18:52:00,88.0,77.0,30.01,SE,132,0.0,9.0,70,0.00,,,0.00,meteohub,2013-08-12 22:52:00,
2013-08-12 18:57:00,87.8,75.9,30.01,SE,136,4.0,9.0,68,0.00,,,0.00,meteohub,2013-08-12 22:57:00,
2013-08-12 19:02:00,87.4,75.9,30.01,SE,144,3.0,9.0,69,0.00,,,0.00,meteohub,2013-08-12 23:02:00,
2013-08-12 19:07:00,87.1,76.1,30.01,SE,130,5.0,11.0,70,0.00,,,0.00,meteohub,2013-08-12 23:07:00,
2013-08-12 19:12:00,86.5,75.9,30.00,SSE,151,2.0,11.0,71,0.00,,,0.00,meteohub,2013-08-12 23:12:00,
2013-08-12 19:17:00,86.5,75.9,30.00,SSW,198,2.0,11.0,71,0.00,,,0.00,meteohub,2013-08-12 23:17:00,
2013-08-12 19:22:00,86.4,76.3,30.00,SSE,167,5.0,10.0,72,0.00,,,0.00,meteohub,2013-08-12 23:22:00,
2013-08-12 19:27:00,86.2,75.7,30.00,South,173,3.0,9.0,71,0.00,,,0.00,meteohub,2013-08-12 23:27:00,
2013-08-12 19:32:00,85.8,75.4,30.01,SSE,159,2.0,9.0,71,0.00,,,0.00,meteohub,2013-08-12 23:32:00,
2013-08-12 19:37:00,85.6,75.6,30.01,South,175,3.0,9.0,72,0.00,,,0.00,meteohub,2013-08-12 23:37:00,
2013-08-12 19:42:00,85.5,75.4,30.01,South,175,2.0,9.0,72,0.00,,,0.00,meteohub,2013-08-12 23:42:00,
2013-08-12 19:47:00,85.3,75.6,30.01,South,178,2.0,9.0,73,0.00,,,0.00,meteohub,2013-08-12 23:47:00,
2013-08-12 19:52:00,84.9,75.2,30.01,South,178,1.0,7.0,73,0.00,,,0.00,meteohub,2013-08-12 23:52:00,
2013-08-12 19:57:00,84.7,75.6,30.02,South,177,4.0,6.0,74,0.00,,,0.00,meteohub,2013-08-12 23:57:00,
2013-08-12 20:02:00,84.7,75.9,30.02,South,177,3.0,5.0,75,0.00,,,0.00,meteohub,2013-08-13 00:02:00,
2013-08-12 20:07:00,84.6,76.1,30.01,South,177,3.0,5.0,76,0.00,,,0.00,meteohub,2013-08-13 00:07:00,
2013-08-12 20:12:00,84.4,75.9,30.01,South,175,0.0,6.0,76,0.00,,,0.00,meteohub,2013-08-13 00:12:00,
2013-08-12 20:17:00,84.0,76.1,30.01,South,175,0.0,6.0,77,0.00,,,0.00,meteohub,2013-08-13 00:17:00,
2013-08-12 20:22:00,83.8,76.3,30.02,South,175,0.0,6.0,78,0.00,,,0.00,meteohub,2013-08-13 00:22:00,
2013-08-12 20:27:00,83.7,76.1,30.02,South,175,4.0,4.0,78,0.00,,,0.00,meteohub,2013-08-13 00:27:00,
2013-08-12 20:32:00,83.3,76.1,30.02,South,175,4.0,6.0,79,0.00,,,0.00,meteohub,2013-08-13 00:32:00,
2013-08-12 20:37:00,83.1,76.3,30.02,South,175,2.0,6.0,80,0.00,,,0.00,meteohub,2013-08-13 00:37:00,
2013-08-12 20:42:00,82.9,76.5,30.02,South,175,2.0,6.0,81,0.00,,,0.00,meteohub,2013-08-13 00:42:00,
2013-08-12 20:47:00,82.8,76.3,30.02,South,175,0.0,4.0,81,0.00,,,0.00,meteohub,2013-08-13 00:47:00,
2013-08-12 20:52:00,82.6,76.1,30.02,South,175,0.0,4.0,81,0.00,,,0.00,meteohub,2013-08-13 00:52:00,
2013-08-12 20:57:00,82.6,76.5,30.02,South,175,1.0,4.0,82,0.00,,,0.00,meteohub,2013-08-13 00:57:00,
2013-08-12 21:02:00,82.4,76.3,30.02,South,175,6.0,6.0,82,0.00,,,0.00,meteohub,2013-08-13 01:02:00,
2013-08-12 21:07:00,82.2,76.1,30.02,South,175,0.0,6.0,82,0.00,,,0.00,meteohub,2013-08-13 01:07:00,
2013-08-12 21:12:00,82.0,75.9,30.02,South,175,4.0,6.0,82,0.00,,,0.00,meteohub,2013-08-13 01:12:00,
2013-08-12 21:17:00,81.9,75.7,30.03,South,175,1.0,7.0,82,0.00,,,0.00,meteohub,2013-08-13 01:17:00,
2013-08-12 21:22:00,81.9,76.5,30.03,South,175,1.0,7.0,84,0.00,,,0.00,meteohub,2013-08-13 01:22:00,
2013-08-12 21:27:00,81.7,75.9,30.03,South,175,3.0,7.0,83,0.00,,,0.00,meteohub,2013-08-13 01:27:00,
2013-08-12 21:32:00,81.7,75.9,30.03,South,174,5.0,5.0,83,0.00,,,0.00,meteohub,2013-08-13 01:32:00,
2013-08-12 21:37:00,81.5,75.4,30.03,SSE,160,2.0,11.0,82,0.00,,,0.00,meteohub,2013-08-13 01:37:00,
2013-08-12 21:42:00,81.3,75.7,30.04,SSE,163,4.0,11.0,83,0.00,,,0.00,meteohub,2013-08-13 01:42:00,
2013-08-12 21:47:00,81.3,75.7,30.04,South,175,2.0,11.0,83,0.00,,,0.00,meteohub,2013-08-13 01:47:00,
2013-08-12 21:52:00,81.1,75.2,30.04,South,188,5.0,10.0,82,0.00,,,0.00,meteohub,2013-08-13 01:52:00,
2013-08-12 22:02:00,81.1,75.2,30.04,South,180,4.0,11.0,82,0.00,,,0.00,meteohub,2013-08-13 02:02:00,
2013-08-12 22:07:00,81.0,75.0,30.04,SSW,192,5.0,10.0,82,0.00,,,0.00,meteohub,2013-08-13 02:07:00,
2013-08-12 22:12:00,81.0,75.0,30.05,SSW,193,0.0,7.0,82,0.00,,,0.00,meteohub,2013-08-13 02:12:00,
2013-08-12 22:17:00,81.0,75.0,30.06,SSW,194,3.0,7.0,82,0.00,,,0.00,meteohub,2013-08-13 02:17:00,
2013-08-12 22:22:00,81.1,75.6,30.07,NW,306,5.0,7.0,83,0.00,,,0.00,meteohub,2013-08-13 02:22:00,
2013-08-12 22:27:00,81.1,75.2,30.07,WSW,252,4.0,10.0,82,0.00,,,0.00,meteohub,2013-08-13 02:27:00,
2013-08-12 22:32:00,81.3,75.4,30.06,SW,223,1.0,10.0,82,0.00,,,0.00,meteohub,2013-08-13 02:32:00,
2013-08-12 22:37:00,81.3,75.4,30.06,SSE,163,5.0,10.0,82,0.00,,,0.00,meteohub,2013-08-13 02:37:00,
2013-08-12 22:42:00,81.5,75.4,30.06,SW,230,2.0,11.0,82,0.00,,,0.00,meteohub,2013-08-13 02:42:00,
2013-08-12 22:47:00,81.7,75.6,30.06,SSE,164,4.0,11.0,82,0.00,,,0.00,meteohub,2013-08-13 02:47:00,
2013-08-12 22:52:00,81.7,74.8,30.06,SW,217,3.0,11.0,80,0.00,,,0.00,meteohub,2013-08-13 02:52:00,
2013-08-12 22:57:00,81.1,72.9,30.06,SSW,207,5.0,17.0,76,0.00,,,0.00,meteohub,2013-08-13 02:57:00,
2013-08-12 23:02:00,80.8,71.8,30.06,WSW,257,5.0,17.0,74,0.00,,,0.00,meteohub,2013-08-13 03:02:00,
2013-08-12 23:07:00,80.2,72.0,30.05,SSW,197,0.0,17.0,76,0.00,,,0.00,meteohub,2013-08-13 03:07:00,
2013-08-12 23:12:00,79.9,72.0,30.05,SSW,198,0.0,10.0,77,0.00,,,0.00,meteohub,2013-08-13 03:12:00,
2013-08-12 23:17:00,79.3,71.1,30.05,SSW,198,0.0,7.0,76,0.00,,,0.00,meteohub,2013-08-13 03:17:00,
2013-08-12 23:22:00,79.2,71.8,30.05,SSW,198,1.0,4.0,78,0.00,,,0.00,meteohub,2013-08-13 03:22:00,
2013-08-12 23:27:00,79.0,72.0,30.04,SSW,197,3.0,4.0,79,0.00,,,0.00,meteohub,2013-08-13 03:27:00,
2013-08-12 23:32:00,78.6,72.0,30.04,SSW,197,3.0,5.0,80,0.00,,,0.00,meteohub,2013-08-13 03:32:00,
2013-08-12 23:37:00,78.4,71.8,30.04,SSW,197,0.0,5.0,80,0.00,,,0.00,meteohub,2013-08-13 03:37:00,
2013-08-12 23:42:00,78.4,72.1,30.04,SSW,197,2.0,5.0,81,0.00,,,0.00,meteohub,2013-08-13 03:42:00,
2013-08-12 23:53:00,78.4,73.2,30.04,SSW,192,1.0,5.0,84,0.00,,,0.00,meteohub,2013-08-13 03:53:00,